Voltar ao catálogo

SL-16 DEB

AtivoLEO
NORAD 39891·DEBRIS·🇷🇺 Russia

Lançado Mar 26, 1993 de Baikonur Cosmodrome

Loading…

Próximas Passagens (próximas 24 horas)

TLE

AtualizadoSource: Space-Track

Época: Sep 14, 2026, 01:56 UTC

1 39891U 93016BR  26257.08073764  .00001544  00000-0  45729-3 0  9990
2 39891  70.9983  25.3680 0008937  42.9832 317.2003 14.44936756643072

Acompanhe SL-16 DEB em tempo real com AllMySat

Download on the App Store